STARLINK-36408, 67473

Orbit data source: Space-Track

STARLINK-36408, 67473 is a payload satellite owned by SpaceX/Seattle (US) in LEO that was launched on Wed, 14 Jan 2026 UTC via an FALCON 9 launch vehicle from the Air Force Eastern Test Range (AFETR). Payload-class satellites include a variety of spacecraft equipped with specific instruments for various scientific and technological missions. These include communications satellites like Starlink; space stations such as the ISS; scientific satellites like the Hubble; Earth observation satellites from companies like Planet Labs, Umbra, and HawkEye 360; GPS; miniature CubeSats for education and research; and military/defense satellites.

Loading next visibility...
Identifier
67473, 2026-008AE
Orbit
LEO
Country
Flag of USUS
Related business
Manufacturer
SpaceX/Seattle
Mission
Operational spacecraft
Bus & Motor
STARLINK V2MO, Unknown motor
Mass
575 kg wet, ~530 kg dry
Launch date (UTC)
2026-01-14 (2 months ago)
Launch vehicle
FALCON 9
Launch site
Air Force Eastern Test Range (AFETR)
Object type
Payload
Rocket body
Debris
Shape & HBR
Unknown shape, 17.7 m
Radar Cross Section
RCS unknown

Expand to show TLE details & history
Last TLE update: 18 hours ago

TLE from 18 hours ago
0 STARLINK-36408
1 67473U 26008AE  26062.49538440  .00028799  00000-0  10513-2 0  9993
2 67473  42.9970 240.3002 0001312 271.4872  88.5829 15.27600678  8627
Epoch: 2026-03-03T11:53Z
TLE epoch observation values (Epoch: 2026-03-03T11:53:21.212Z)
Latitude
-0.00002°
Longitude
-99.31183°
Altitude
482.74 km
Speed
7.626 km/s
True Right ascension
16h 01m 12s
True Declination
0° 00' 00"
Sunlit
Object was in daylight at epoch
Visualization orbit readout
Latitude
Unknown
Longitude
Unknown
Altitude
Unknown
Speed
Unknown
Apparent Right ascension
Unknown
Apparent Declination
Unknown
Sunlit
N/A
Visualization observer readout
Local Sidereal Time
10:02:43
Azimuth
Unknown
Elevation
Unknown
Doppler factor
Unknown
Orbital elements
Apogee altitude
485.833 km
Perigee altitude
484.032 km
Semi-major axis
6,863.07 km
Eccentricity
0.00013
Inclination
42.997°
RAAN
240.3002°
Arg. of periapsis
271.4872°
True anomaly
88.59793°
Mean anomaly
88.5829°
Eccentric anomaly
88.59041°
Mean motion
3.81738 °/min
Orbital period
94.31 mins
BSTAR
0.0010513
Loading maneuver chart data...
Computing Atmospheric mass density...
Loading historical data...
Loading historical data...
Loading historical data...
Loading historical data...
Loading historical data...
Loading historical data...
Loading historical data...

Documentation

Showing up to 5 results
|